Location: Bratislava
(48.1500°N, 17.1167°E)
Time: 18:44:31
(UTC+01:00)

ISS - Visible Passes

Search period start: 11 December 2025 00:00
Search period end: 21 December 2025 00:00
Orbit: 416 x 420 km, 51.6° (Epoch: 11 December)

Date Brightness Start Highest point End Pass type
(mag) Time Alt. Az. Time Alt. Az. Time Alt. Az.
12 Dec -0.7 06:27:07 10° S 06:29:29 18° SE 06:31:51 10° E visible
13 Dec -0.4 05:40:32 10° SSE 05:41:44 12° SE 05:42:57 10° ESE visible
14 Dec -2.3 06:26:50 10° SW 06:30:01 39° SSE 06:33:12 10° ENE visible
15 Dec -1.6 05:39:15 10° SSW 05:42:07 26° SE 05:45:00 10° E visible
16 Dec -1.2 04:53:40 17° SSE 04:54:14 17° SE 04:56:32 10° E visible
16 Dec -3.7 06:27:14 10° WSW 06:30:35 83° SSE 06:33:59 10° ENE visible
17 Dec -3.2 05:41:11 31° SW 05:42:32 57° SSE 05:45:52 10° ENE visible
18 Dec -1.8 04:55:29 30° ESE 04:55:29 30° ESE 04:57:40 10° ENE visible
18 Dec -3.6 06:28:26 14° W 06:31:12 59° NNW 06:34:33 10° ENE visible
19 Dec -3.9 05:42:33 61° W 05:43:00 76° NNW 05:46:23 10° ENE visible
20 Dec -1.7 04:56:30 27° ENE 04:56:30 27° ENE 04:58:12 10° ENE visible
20 Dec -3.3 06:29:26 17° WNW 06:31:46 45° N 06:35:02 10° ENE visible
